Location: Capelle
(50.3413°N, 1.9974°E)
Time: 23:02:50
(UTC+00:00)

UNK - Pass Details

Date: 12 January 2026
Orbit: 653 x 673 km, 98.4° (Epoch: 7 February)

Event Time Altitude Azimuth Distance (km) Brightness Sun altitude
Rises 17:40:17 0° 12° (NNE) 2,994 6.8 -13.3°
Reaches altitude 10° 17:42:31 10° 9° (N) 2,076 6.0 -13.7°
Maximum altitude 17:46:59 64° 289° (WNW) 726 4.1 -14.4°
Drops below altitude 10° 17:51:26 10° 208° (SSW) 2,060 6.9 -15.0°
Sets 17:53:39 0° 205° (SSW) 2,968 7.7 -15.4°
